This is the latest recevied weather packets stored in our database for station/object KG5RGN-13. If no packets are shown the sender has not sent any weather packets the latest 1 day(s).
| Time | Temp. | Humidity | Pressure | Rain* | Wind** | Luminosity | Snow |
|---|---|---|---|---|---|---|---|
| 1778012859 | 22.78° C | 100% | 0 hPa | 0 mm | 2.24 m/s, 344° | - | - |
| 1778012559 | 22.22° C | 100% | 0 hPa | 0 mm | 3.13 m/s, 150° | - | - |
| 1778012259 | 21.67° C | 100% | 0 hPa | 0 mm | 0 m/s | - | - |
| 1778011959 | 21.67° C | 100% | 0 hPa | 0 mm | 3.13 m/s, 209° | - | - |
| 1778011659 | 22.22° C | 100% | 0 hPa | 0 mm | 4.92 m/s, 260° | - | - |
| 1778011359 | 21.11° C | 100% | 0 hPa | 0 mm | 5.36 m/s, 208° | - | - |
| 1778011059 | 22.78° C | 100% | 0 hPa | 0 mm | 0 m/s | - | - |
| 1778010759 | 22.22° C | 100% | 0 hPa | 0 mm | 2.68 m/s, 215° | - | - |
| 1778010459 | 21.67° C | 100% | 0 hPa | 0 mm | 8.49 m/s, 187° | - | - |
| 1778010159 | 21.11° C | 100% | 0 hPa | 0 mm | 3.13 m/s, 215° | - | - |
| 1778009859 | 20.56° C | 100% | 0 hPa | 0 mm | 4.92 m/s, 147° | - | - |
| 1778009559 | 21.11° C | 100% | 0 hPa | 0 mm | 6.26 m/s, 177° | - | - |
| 1778009259 | 21.11° C | 100% | 0 hPa | 0 mm | 0 m/s | - | - |
| 1778008959 | 23.33° C | 100% | 0 hPa | 0 mm | 1.79 m/s, 244° | - | - |
| 1778008659 | 21.67° C | 100% | 0 hPa | 0 mm | 2.24 m/s, 206° | - | - |
| 1778008359 | 21.11° C | 100% | 0 hPa | 0 mm | 0 m/s | - | - |
| 1778008059 | 21.11° C | 100% | 0 hPa | 0 mm | 1.79 m/s, 222° | - | - |
| 1778007759 | 21.11° C | 100% | 0 hPa | 0 mm | 0 m/s | - | - |
| 1778007459 | 21.67° C | 100% | 0 hPa | 0 mm | 3.58 m/s, 220° | - | - |
| 1778007159 | 22.78° C | 100% | 0 hPa | 0 mm | 2.24 m/s, 284° | - | - |
| 1778006859 | 21.67° C | 100% | 0 hPa | 0 mm | 2.68 m/s, 188° | - | - |
| 1778006559 | 22.78° C | 100% | 0 hPa | 0 mm | 2.24 m/s, 264° | - | - |
| 1778006259 | 21.11° C | 100% | 0 hPa | 0 mm | 2.68 m/s, 260° | - | - |
| 1778005959 | 21.67° C | 100% | 0 hPa | 0 mm | 5.36 m/s, 170° | - | - |
| 1778005659 | 22.22° C | 100% | 0 hPa | 0 mm | 0 m/s | - | - |
* Rain latest hour (hover to see other rain measurements)
** Current wind speed in m/s (hover to see current wind gust speed)